#timestamp,LO_Frequency,Hit,StdDev 
1459994415.2,286046996.0,N
1459994435.9,286046994.9,N
1459994455.7,286046997.6,N
1459994475.6,286046997.6,N
1459994495.4,286046999.5,N
1459994515.2,286046996.7,N
1459994535.0,286046999.5,N
1459994535.9,286046999.5,N
1459994555.8,286046997.4,N
1459994575.6,286046997.9,N
1459994595.4,286046995.8,N
1459994615.3,286046995.9,N
1459994635.1,286046994.8,N
1459994636.0,286046994.8,N
1459994655.8,286046996.2,N
1459994675.7,286046995.5,N
1459994695.5,286046998.0,N
1459994715.3,286046999.6,N
1459994735.2,286046995.1,Y
1459994755.9,286047000.9,P
1459994775.7,286047000.0,N
1459994795.6,286046998.9,N
1459994815.4,286046998.3,N
1459994835.2,286046998.5,N
1459994855.1,286047004.0,N
1459994856.0,286047004.0,N
1459994875.8,286047003.9,N
1459994895.6,286047003.5,N
1459994915.4,286047004.8,N
1459994935.3,286047005.7,N
1459994955.1,286047003.8,N
1459994975.8,286047003.7,N
1459994995.7,286047003.1,N
1459995015.5,286047005.9,N
1459995035.3,286047005.7,N
1459995055.2,286047006.0,N
1459995075.9,286047004.8,N
1459995095.7,286047010.8,Y
1459995115.6,286047006.6,P
1459995135.4,286047004.7,N
1459995155.2,286047007.6,P
1459995175.1,286047003.4,N
1459995176.0,286047003.4,N
1459995195.8,286047004.7,N
1459995215.6,286047006.9,Y
1459995235.5,286047002.3,P
1459995255.3,286047000.7,N
1459995275.1,286047001.2,N
1459995295.9,286047000.5,N
1459995315.7,286047001.6,N
1459995335.5,286047003.9,N
1459995355.3,286047000.1,N
1459995375.2,286047002.5,N
1459995395.0,286047003.9,N
1459995395.9,286047003.9,N
1459995415.7,286047000.2,N
1459995435.6,286047000.5,N
1459995455.4,286047000.9,N
1459995475.2,286047000.2,N
1459995495.1,286047000.6,N
1459995496.0,286047000.6,N
1459995515.8,286046998.7,N
1459995535.6,286046999.7,N
1459995555.5,286046999.7,N
1459995575.3,286046998.4,N
1459995595.1,286047001.2,N
1459995615.9,286047000.8,N
1459995635.7,286046998.5,N
1459995655.5,286046998.2,N
1459995675.3,286047001.2,N
1459995695.2,286046999.9,N
1459995715.0,286046998.7,N
1459995715.9,286046998.7,N
1459995735.7,286046999.9,N
1459995755.6,286046999.8,N
1459995775.4,286047001.1,N
1459995795.2,286046999.4,N
1459995815.1,286046999.6,N
1459995816.0,286046999.6,N
1459995835.8,286047001.2,N
1459995855.6,286047000.5,N
1459995875.5,286046998.8,N
1459995895.3,286046996.9,N
1459995915.1,286046999.4,N
1459995935.9,286046998.7,N
1459995955.7,286047000.4,N
1459995975.5,286046999.3,N
1459995995.4,286046998.7,N
1459996015.2,286047000.3,N
1459996035.0,286047001.6,N
1459996035.9,286047001.6,N
1459996055.8,286047006.0,Y
1459996075.6,286047004.6,P
1459996095.4,286047007.1,N
1459996115.3,286047007.1,N
1459996135.1,286047004.9,N
1459996136.0,286047004.9,N
1459996155.8,286047004.9,N
1459996175.7,286047008.7,Y
1459996195.5,286047005.5,P
1459996215.3,286047005.8,P
1459996235.2,286047006.3,P
1459996255.9,286047009.0,Y
1459996275.7,286047004.4,P
1459996295.6,286047004.1,P
1459996315.4,286047005.5,P
1459996335.2,286047003.6,Y
1459996355.1,286046996.8,P
1459996356.0,286046996.8,N
1459996375.8,286046996.2,N
1459996395.6,286046993.7,N
1459996415.5,286046997.9,N
1459996435.3,286046995.5,N
1459996455.1,286046997.5,N
1459996475.8,286046997.6,N
1459996495.7,286046996.2,N
1459996515.5,286046994.9,N
1459996535.3,286046999.3,N
1459996555.2,286046997.9,N
1459996575.9,286046997.5,N
1459996595.7,286046995.6,N
1459996615.6,286046994.8,N
1459996635.4,286046995.8,N
1459996655.2,286046999.3,N
1459996675.1,286046993.3,N
1459996676.0,286046993.3,N
1459996695.8,286046996.3,N
1459996715.6,286046993.5,N
1459996735.5,286046990.2,Y
1459996755.3,286046993.3,P
1459996775.1,286046994.5,P
1459996795.9,286046993.9,P
1459996815.7,286046999.1,N
1459996835.5,286046999.5,N
1459996855.3,286046996.0,N
1459996875.2,286046997.9,N
1459996895.0,286046994.0,N
1459996895.9,286046994.0,N
1459996915.7,286046994.4,N
1459996935.6,286046990.3,Y
1459996955.4,286046995.6,P
1459996975.2,286046995.0,P
1459996995.1,286046998.3,P
1459996996.0,286046998.3,N
1459997015.8,286046997.0,N
1459997035.6,286046995.4,Y
1459997055.5,286047000.2,P
1459997075.3,286047000.2,N
1459997095.1,286047004.2,N
1459997115.9,286047004.3,N
1459997135.7,286047003.3,N
1459997155.5,286047003.7,N
1459997175.4,286047003.7,N
1459997195.2,286047003.2,N
1459997215.0,286047002.6,N
1459997215.9,286047002.6,N
1459997235.8,286046998.6,N
1459997255.6,286047001.1,N
1459997275.4,286046996.9,N
1459997295.3,286046998.0,N
1459997315.1,286046995.1,N
1459997316.0,286046995.1,N
1459997335.8,286046991.9,N
1459997355.6,286046991.3,N
1459997375.5,286046989.5,N
1459997395.3,286046989.7,N
1459997415.1,286046990.9,N
1459997435.9,286046992.4,N
1459997455.7,286046992.2,N
1459997475.5,286046990.5,N
1459997495.4,286046988.8,N
1459997515.2,286046987.3,N
1459997535.0,286046990.0,N
1459997535.9,286046990.0,N
1459997555.8,286046987.5,N
1459997575.6,286046987.5,N
1459997595.4,286046988.3,N
1459997615.3,286046987.7,N
1459997635.1,286046988.3,N
1459997636.0,286046988.3,N
1459997655.8,286046987.9,N
1459997675.7,286046986.0,N
1459997695.5,286046986.3,N
1459997715.3,286046986.3,N
1459997735.1,286046986.1,N
1459997755.9,286046987.8,N
1459997775.7,286046987.2,Y
1459997795.5,286046997.3,P
1459997815.4,286046996.9,N
1459997835.2,286046996.5,N
1459997855.0,286046997.0,N
1459997855.9,286046997.0,N
1459997875.8,286047001.2,N
1459997895.6,286047001.0,N
1459997915.4,286047001.2,N
1459997935.3,286047001.5,N
1459997955.1,286047004.1,N
1459997956.0,286047004.1,N
1459997975.8,286047002.1,N
1459997995.7,286047004.0,N
